Вернуться в каталог

COSMOS 494

АктивенВоенныеLEO
NORAD 6059·PAYLOAD·🇷🇺 Russia

Запущен Jun 23, 1972 с Plesetsk Cosmodrome

Loading…

Ближайшие Пролёты (ближайшие 24 часа)

TLE

СвежийSource: Space-Track

Эпоха: Sep 14, 2026, 11:39 UTC

1 06059U 72043A   26257.48606383  .00000057  00000-0  28269-4 0  9999
2 06059  74.0530 277.9691 0009750  26.4828 333.6821 14.36552551836968

Отслеживайте COSMOS 494 в реальном времени с AllMySat

Download on the App Store